Weather History for 03135 - November, 2013

Change the Weather History Date:

Friday, November 8, 2013

  Actual Average Record
Temperature  
Mean Temperature 44 °F -  
Max Temperature 50 °F 47 °F - ()
Min Temperature 37 °F 37 °F - ()
Degree Days  
Heating Degree Days 22    
Moisture  
Dew Point 39 °F    
Average Humidity 80    
Maximum Humidity 93    
Minimum Humidity 66    
Precipitation  
Precipitation 0.00 in - - ()
Sea Level Pressure  
Sea Level Pressure 29.51 in    
Wind  
Wind Speed 8 mph ()    
Max Wind Speed 16 mph    
Max Gust Speed -    
Visibility 6.2 miles    
Events Rain    
T = Trace of Precipitation, MM = Missing Value Source: Averaged Metar Reports

Daily Weather History Graph

Daily Weather History Graph

Search for Another Location

Airport or City:

Trip Planner

Search our weather history database for the weather conditions in past years. The results will help you decide how hot, cold, wet, or windy it might be!

Date:

Astronomy

Nov. 08, 2013 Rise Set
Actual Time 7:38 AM GMT 4:24 PM GMT
Civil Twilight 6:58 AM GMT 5:05 PM GMT
Nautical Twilight 6:13 AM GMT 5:49 PM GMT
Astronomical Twilight 5:30 AM GMT 6:32 PM GMT
Moon 12:26 PM GMT (11/8) 9:29 PM GMT (11/8)
Length of Visible Light 10h 07m
Length of Day
8h 46m
Waxing Crescent, 30% of the Moon is Illuminated
Nov 8
Waxing Crescent
Nov 10
First Quarter
Nov 17
Full
Nov 25
Last Quarter
Dec 3
New

Hourly Weather History & Observations

Time (GMT) Temp. Windchill Dew Point Humidity Pressure Visibility Wind Dir Wind Speed Gust Speed Precip Events Conditions
12:50 AM 46.4 °F 40.7 °F 41.0 °F 81% 29.50 in 6.2 mi SSW 12.7 mph - N/A Rain Light Rain Showers
1:50 AM 46.4 °F 45.2 °F 41.0 °F 81% 29.50 in 6.2 mi South 3.5 mph - N/A   Mostly Cloudy
2:50 AM 44.6 °F 40.7 °F 39.2 °F 81% 29.50 in 6.2 mi SSW 6.9 mph - N/A   Mostly Cloudy
3:50 AM 46.4 °F 40.4 °F 41.0 °F 81% 29.50 in 6.2 mi SW 13.8 mph - N/A   Partly Cloudy
4:50 AM 46.4 °F 41.9 °F 41.0 °F 81% 29.47 in 6.2 mi SSW 9.2 mph - N/A   Partly Cloudy
5:50 AM 44.6 °F 41.4 °F 39.2 °F 81% 29.50 in 6.2 mi SSW 5.8 mph - N/A   Partly Cloudy
6:20 AM 44.6 °F 40.7 °F 39.2 °F 81% 29.50 in 6.2 mi SW 6.9 mph - N/A   Mostly Cloudy
6:50 AM 46.4 °F 40.7 °F 41.0 °F 81% 29.47 in 6.2 mi SW 12.7 mph - N/A   Mostly Cloudy
7:20 AM 46.4 °F 42.4 °F 41.0 °F 81% 29.47 in 6.2 mi SSW 8.1 mph - N/A   Scattered Clouds
7:50 AM 46.4 °F 41.5 °F 41.0 °F 81% 29.50 in 6.2 mi SSW 10.4 mph - N/A   Scattered Clouds
8:20 AM 44.6 °F 39.7 °F 41.0 °F 87% 29.50 in 6.2 mi South 9.2 mph - N/A   Scattered Clouds
8:50 AM 46.4 °F 42.4 °F 41.0 °F 81% 29.50 in 6.2 mi SSW 8.1 mph - N/A   Scattered Clouds
9:20 AM 48.2 °F - 41.0 °F 76% 29.50 in 6.2 mi SW 12.7 mph - N/A   Scattered Clouds
9:50 AM 48.2 °F - 41.0 °F 76% 29.50 in 6.2 mi WSW 16.1 mph - N/A   Scattered Clouds
10:20 AM 48.2 °F - 41.0 °F 76% 29.50 in 6.2 mi WSW 13.8 mph - N/A   Scattered Clouds
10:50 AM 48.2 °F - 41.0 °F 76% 29.50 in 6.2 mi WSW 16.1 mph - N/A   Scattered Clouds
11:20 AM 48.2 °F - 41.0 °F 76% 29.50 in 6.2 mi SW 12.7 mph - N/A   Scattered Clouds
11:50 AM 50.0 °F - 41.0 °F 71% 29.50 in 6.2 mi SW 13.8 mph - N/A   Scattered Clouds
12:20 PM 48.2 °F - 41.0 °F 76% 29.50 in 6.2 mi WSW 13.8 mph - N/A   Scattered Clouds
12:50 PM 50.0 °F - 41.0 °F 71% 29.50 in 6.2 mi SW 12.7 mph - N/A   Scattered Clouds
1:20 PM 50.0 °F - 41.0 °F 71% 29.50 in 6.2 mi SW 12.7 mph - N/A   Scattered Clouds
1:50 PM 50.0 °F - 41.0 °F 71% 29.50 in 6.2 mi WSW 13.8 mph - N/A   Scattered Clouds
2:20 PM 50.0 °F - 39.2 °F 66% 29.50 in 6.2 mi WSW 10.4 mph - N/A   Scattered Clouds
2:50 PM 48.2 °F - 39.2 °F 71% 29.50 in 6.2 mi WSW 9.2 mph - N/A   Scattered Clouds
3:20 PM 48.2 °F - 39.2 °F 71% 29.50 in 6.2 mi West 10.4 mph - N/A   Scattered Clouds
3:50 PM 46.4 °F 41.9 °F 37.4 °F 71% 29.53 in 6.2 mi NW 9.2 mph - N/A   Scattered Clouds
4:20 PM 42.8 °F 40.1 °F 37.4 °F 81% 29.53 in 6.2 mi North 4.6 mph - N/A   Scattered Clouds
4:50 PM 42.8 °F 40.1 °F 37.4 °F 81% 29.53 in 6.2 mi NNW 4.6 mph - N/A   Scattered Clouds
5:20 PM 42.8 °F - 37.4 °F 81% 29.53 in 6.2 mi NW 2.3 mph - N/A   Partly Cloudy
5:50 PM 41.0 °F - 37.4 °F 87% 29.53 in 6.2 mi Calm Calm - N/A   Scattered Clouds
6:20 PM 42.8 °F 37.0 °F 37.4 °F 81% 29.53 in 6.2 mi NW 10.4 mph - N/A   Scattered Clouds
6:50 PM 41.0 °F - 35.6 °F 81% 29.53 in 6.2 mi NW 2.3 mph - N/A   Scattered Clouds
7:20 PM 39.2 °F 37.0 °F 35.6 °F 87% 29.53 in 6.2 mi NW 3.5 mph - N/A   Scattered Clouds
7:50 PM 37.4 °F 33.8 °F 33.8 °F 87% 29.53 in 6.2 mi ESE 4.6 mph - N/A   Scattered Clouds
8:20 PM 37.4 °F 34.9 °F 35.6 °F 93% 29.56 in 6.2 mi ESE 3.5 mph - N/A   Scattered Clouds
8:50 PM 37.4 °F 34.9 °F 35.6 °F 93% 29.53 in 6.2 mi ESE 3.5 mph - N/A   Scattered Clouds
9:20 PM 39.2 °F - 35.6 °F 87% 29.53 in 6.2 mi SSE 2.3 mph - N/A   Mostly Cloudy
9:50 PM 39.2 °F 37.0 °F 35.6 °F 87% 29.53 in 6.2 mi ESE 3.5 mph - N/A   Mostly Cloudy
10:20 PM 41.0 °F 37.1 °F 37.4 °F 87% 29.56 in 6.2 mi Variable 5.8 mph - N/A   Mostly Cloudy
10:50 PM 39.2 °F 35.9 °F 35.6 °F 87% 29.53 in 6.2 mi NNE 4.6 mph - N/A   Scattered Clouds
11:20 PM 39.2 °F - 35.6 °F 87% 29.56 in 6.2 mi Variable 2.3 mph - N/A   Scattered Clouds
11:50 PM 39.2 °F - 35.6 °F 87% 29.56 in 6.2 mi Calm Calm - N/A   Scattered Clouds